Terminal Aerodrome Forecast
Issued by NWS

Home | Current Version | Previous Version | Text Only | Print | Product List | Glossary On
Versions: 1 2 3 4 5 6 7 8 9 10 11 12 13 14 15 16 17 18 19 20 21 22 23 24 25 26
000
FTUS44 KOUN 291136
TAFGAG
TAF
KGAG 291136Z 2912/3012 18004KT P6SM OVC100
     FM291400 18010KT P6SM BKN100
     FM292100 19013G20KT P6SM SCT050 BKN150
     FM300500 17010G18KT 5SM -RA OVC050
      TEMPO 3005/3009 2SM TSRA OVC025CB=

USA.gov is the U.S. government's official web portal to all federal, state and local government web resources and services.